User: anonymous   Login
Location: Passau
(48.5830°N, 13.4830°E)
Time: 17:48:23
(UTC+01:00)
Language:

UNISAT 6 - Orbit

View from above orbital plane
View from above orbital plane
View from above satellite
View from above satellite

Ground track
Ground track

The orbit data is extracted from the following two-line orbital elements,

1 40012U 14033C   21336.80990015  .00000465  00000-0  75280-4 0  9996
2 40012  97.6630 170.3048 0059302  75.9766 284.8027 14.74453669401007
Epoch (UTC): 02 December 2021 19:26:15
Eccentricity: 0.0059302
inclination: 97.6630°
perigee height: 605 km
apogee height: 688 km
right ascension of ascending node: 170.3048°
argument of perigee: 75.9766°
revolutions per day: 14.74453669
mean anomaly at epoch: 284.8027°
orbit number at epoch: 40100

The dashed part of the orbit path shows where the satellite is in the earth's shadow,  

DLR